Regional Weather Roundup
Issued by NWS

Home | Current Version | Previous Version | Graphics & Text | Print | Product List | Glossary Off
Versions: 1 2 3 4 5 6 7 8 9 10 11 12 13 14 15 16 17 18 19 20 21 22 23 24 25 26 27 28 29 30 31 32 33 34 35 36 37 38 39 40 41 42 43 44 45 46 47 48 49 50

000
ASUS43 KMKX 232201
RWRWI

WISCONSIN REGIONAL WEATHER ROUNDUP
NATIONAL WEATHER SERVICE MILWAUKEE/SULLIVAN WI
500 PM CDT SAT JUN 23 2018

NOTE: "FAIR" INDICATES FEW OR NO CLOUDS BELOW 12,000 FEET WITH NO
SIGNIFICANT WEATHER AND/OR OBSTRUCTIONS TO VISIBILITY.

WIZ001-002-006>008-014>016-023>028-232300-
NORTHWEST WISCONSIN

CITY           SKY/WX    TMP DP  RH WIND       PRES   REMARKS
SUPERIOR ARPT  FAIR      59  47  65 NE9       29.78S
ASHLAND        FAIR      72  57  59 N9        29.77S
HAYWARD        FAIR      80  56  43 SW5       29.76F HX  80
SIREN          PTSUNNY   80  55  42 CALM      29.76F HX  80
CUMBERLAND     PTSUNNY   77  55  47 W5        29.78S
RICE LAKE      FAIR      79  52  38 CALM      29.77F
CHETEK         FAIR      81  57  43 CALM      29.76F HX  81
LADYSMITH      FAIR      80  52  37 CALM      29.78S HX  80
EAU CLAIRE     FAIR      81  54  39 CALM      29.75S HX  81
MENOMONIE      FAIR      81  48  31 W3        29.75F HX  80
NEW RICHMOND   FAIR      80  53  39 E3        29.77S HX  80
OSCEOLA        FAIR      81  54  38 CALM      29.78F HX  80
$$

WIZ003>005-009-010-017-018-232300-
NORTH CENTRAL WISCONSIN

CITY           SKY/WX    TMP DP  RH WIND       PRES   REMARKS
MANITOWISH WTR FAIR      78  56  46 NE5       29.78S
ARBOR VITAE    FAIR      82  48  31 NW5       29.77F HX  80
WOODRUFF       FAIR      82  48  31 NW5       29.77F HX  80
RHINELANDER    FAIR      83  50  31 NW3       29.78S HX  81
EAGLE RIVER    FAIR      80  42  26 CALM      29.77S
LAND O LAKES   FAIR      82  40  22 N8        29.79S HX  80
PHILLIPS       FAIR      79  55  43 SW3       29.76F
TOMAHAWK       FAIR      79  46  31 CALM      29.78S
MEDFORD        FAIR      78  50  36 E3        29.77S
MERRILL        FAIR      81  48  32 CALM      29.76F HX  80
$$

WIZ029-030-035-036-043>047-232300-
CENTRAL WISCONSIN

CITY           SKY/WX    TMP DP  RH WIND       PRES   REMARKS
WAUSAU         FAIR      82  47  29 VRB5      29.75S HX  80
MOSINEE        PTSUNNY   81  46  30 W3        29.77F HX  80
MARSHFIELD     FAIR      81  52  36 MISG      29.76S HX  80
STEVENS POINT  FAIR      79  47  32 N5        29.76F
WAUPACA        FAIR      82  48  30 CALM      29.76S HX  81
WAUTOMA        FAIR      81  50  33 VRB3      29.76S HX  80
WISC RAPIDS    FAIR      81  52  36 VRB6      29.76F HX  80
CAMP DOUGLAS   NOT AVBL
$$

WIZ011>013-019>022-031-037>040-048>050-232300-
NORTHEAST WISCONSIN

CITY           SKY/WX    TMP DP  RH WIND       PRES   REMARKS
ANTIGO         FAIR      79  43  28 CALM      29.78S
SHAWANO        FAIR      82  48  31 E3        29.76S HX  80
OCONTO         FAIR      73  61  64 SE9       29.77S
STURGEON BAY   FAIR      71  60  68 W7        29.78S
GREEN BAY      FAIR      75  59  57 NE12      29.77S
MANITOWOC      FAIR      71  60  68 NE8       29.77S
APPLETON       MOSUNNY   79  46  31 N7        29.75F
CLINTONVILLE   NOT AVBL
OSHKOSH        FAIR      78  55  44 E7        29.76F
$$

WIZ032>034-041-042-053>061-232300-
SOUTHWEST WISCONSIN

CITY           SKY/WX    TMP DP  RH WIND       PRES   REMARKS
LA CROSSE      FAIR      84  54  35 W5        29.75S HX  83
SPARTA         FAIR      77  60  54 W6        29.77S
VIROQUA        FAIR      74  59  59 W5        29.80R
BOSCOBEL       FAIR      76  63  64 SW5       29.78R
PRAIRIE DU CHI FAIR      74  61  63 S5        29.78R
PLATTEVILLE    FAIR      75  62  63 CALM      29.80S
$$

WIZ056-057-062-063-064-067-068-232300-
SOUTH CENTRAL WISCONSIN

CITY           SKY/WX    TMP DP  RH WIND       PRES   REMARKS
REEDSBURG      FAIR      79  56  45 N7        29.76S HX  80
BARABOO/DELLS  FAIR      79  48  33 W3        29.77S
LONE ROCK      NOT AVBL
MINERAL POINT  FAIR      77  55  47 CALM      29.79S
MADISON        PTSUNNY   78  57  48 NW3       29.76S
MIDDLETON      FAIR      78  56  47 CALM      29.78S
WATERTOWN      FAIR      79  57  46 NW8       29.76S HX  80
MONROE         FAIR      76  57  51 CALM      29.78S
JANESVILLE     PTSUNNY   79  59  50 VRB6      29.76S HX  80
$$

WIZ051-052-058>065-066-070>072-232300-
SOUTHEAST WISCONSIN

CITY           SKY/WX    TMP DP  RH WIND       PRES   REMARKS
MILWAUKEE      FAIR      70  49  47 NE8       29.77S
WAUKESHA       MOSUNNY   73  54  49 E7        29.77S
MILWAUKEE/TIMM SUNNY     72  43  35 E6        29.78S
RACINE         FAIR      72  51  47 NE7       29.78S
BURLINGTON     FAIR      80  58  48 NW7       29.76S HX  80
KENOSHA        FAIR      74  52  46 E8        29.77R
FOND DU LAC    FAIR      77  57  50 NE8       29.77S
SHEBOYGAN      FAIR      70  60  70 E9        29.77S
WEST BEND      FAIR      75  52  43 E7        29.77S HAZE
JUNEAU         FAIR      77  54  45 NW5       29.77F
$$

LSZ147-162-232300-
LAKE SUPERIOR

STATION/POSITION TIME  TEMP    WIND        PRES    WAVE
                       AIR SEA DIR/SP/G            HT/PER
                 (UTC) (F)     (DEG/KT/KT) (MB)    (FT/S)
W MID LAKE BUOY  2050   40 38  300/ 10/ 10 1009.4R   0
DEVILS ISLAND    2100   52      30/  9/ 10 1009.2R
SAXON HARBOR     2130   62      30/  4/  5 1008.1F
$$

LMZ867-665-643>646-232300-
LAKE MICHIGAN

STATION/POSITION TIME  TEMP    WIND        PRES    WAVE
                       AIR SEA DIR/SP/G            HT/PER
                 (UTC) (F)     (DEG/KT/KT) (MB)    (FT/S)
S GREEN BAY BUOY 2130   68 70   60/ 10/ 12 1008.5R
N MID LAKE BUOY  2140   58 54   50/  2/  4 1007.4R
NORTHPORT PIER   2140   66      90/  2/  3 1008.1R
KEWAUNEE LAKESHO 2130   66      30/  3/  7 1008.0F
SHEBOYGAN LAKESH 2100   59      20/  4/  5 1007.9R
PORT WASHINGTON  2130   66      90/  2/  3 1009.5R
ATWATER BUOY     2107   64 58  340/  2/  4 1008.8    1
MILWAUKEE LAKESH 2140   64      50/  4/  4   N/A
S MID LAKE BUOY  2050   62 65  300/  6/  6 1008.1R   1/ 4
KENOSHA   LAKESH 2100   67     100/  3/  4 1007.8
$$

TC  - TEMPERATURE IN CELSIUS
VSB - VISIBILITY IN STATUTE MILES
WCI - WIND CHILL INDEX
HX  - HEAT INDEX





USA.gov is the U.S. government's official web portal to all federal, state and local government web resources and services.